Content
SEND FEEDBACK

United States of America Flag

NEW YORK - CENTRAL PARK, NEW YORK


Home > North America > United States > New York
Elevation: 4 meters     Latitude: 40 47N     Longitude: 073 58W

WEATHER
 
SELECT A DAY
Number of Records: 166,240;   Date Range: 11/1/95 - 3/22/16
 
SHARE

PRINT THIS DATA

[ ← Previous Day ]
WEATHER ALMANAC - 21 NOVEMBER, 2013
[ Next Day → ]
[ °F ]   °C
Weather ElementAverageHighLow
Temperature7.8 °C11 °C (9:46 pm)1.7 °C (3:51 am)
Dewpoint-0.2 °C4.4 °C (8:03 pm)-7.2 °C (1:51 am)
Humidity57.3 %68 % (8:03 pm)46 % (11:51 am)
Barometer1033.5 hPa1036.6 hPa (1:51 am)1029.5 hPa (11:51 pm)
Wind Speed7.4 km/h14.8 km/h (7:51 am)
Weather ElementAverage
Visibility16.1 km
Wind DirectionENE (68.5 °)

Weather ElementTotal
Precipitation---
Heating Degree Days12 (Base 18.3)
Averaged from 27 records on 21 November, 2013
WEATHER CONDITIONS BREAKOUT
WIND DIRECTION BREAKOUT
WEATHER BY HOUR - 21 NOVEMBER, 2013
[ °F ]   °C
Local TimeTemperatureDewpointHumidityBarometerVisibilityWind DirectionWind SpeedGust SpeedPrecipitationEventsConditions
1:51 AM2.8 °C-7.2 °C48 %1036.6 hPa16.1 kmNNE (20°)7.4 km/hClear
2:51 AM2.2 °C-7.2 °C50 %1036.6 hPa16.1 kmNorth (360°)5.6 km/hClear
3:51 AM1.7 °C-6.1 °C57 %1036.6 hPa16.1 kmCalmClear
4:51 AM2.2 °C-6.1 °C55 %1036.6 hPa16.1 kmNE (40°)7.4 km/hClear
5:51 AM2.8 °C-7.2 °C48 %1036.6 hPa16.1 kmNNE (30°)5.6 km/hOvercast
6:51 AM2.8 °C-6.7 °C50 %1036.6 hPa16.1 kmNE (40°)9.3 km/hScattered Clouds
7:51 AM3.3 °C-4.4 °C57 %1036.2 hPa16.1 kmENE (60°)14.8 km/hClear
8:51 AM5 °C-3.3 °C55 %1036.6 hPa16.1 kmENE (70°)14.8 km/hClear
9:51 AM6.7 °C-1.7 °C55 %1036.2 hPa16.1 kmEast (90°)7.4 km/hClear
10:51 AM8.3 °C-1.7 °C50 %1035.9 hPa16.1 kmEast (90°)9.3 km/hClear
11:51 AM9.4 °C-1.7 °C46 %1034.5 hPa16.1 kmVariable9.3 km/hClear
12:51 PM10.6 °C-0.6 °C46 %1033.2 hPa16.1 kmVariable7.4 km/hClear
1:51 PM10.6 °C0.6 °C50 %1032.5 hPa16.1 kmSouth (170°)11.1 km/hMostly Cloudy
2:51 PM10 °C1.1 °C54 %1032.2 hPa16.1 kmVariable5.6 km/hOvercast
3:51 PM9.4 °C1.7 °C59 %1031.8 hPa16.1 kmVariable9.3 km/hOvercast
4:51 PM9.4 °C2.2 °C61 %1031.8 hPa16.1 kmVariable7.4 km/hOvercast
5:51 PM10 °C3.3 °C63 %1031.8 hPa16.1 kmVariable7.4 km/hOvercast
6:44 PM10 °C3.3 °C63 %1032.2 hPa16.1 kmCalmOvercast
6:51 PM10 °C3.3 °C63 %1031.2 hPa16.1 kmVariable7.4 km/hOvercast
7:31 PM10 °C3.9 °C66 %1031.8 hPa16.1 kmSouth (180°)7.4 km/hOvercast
7:51 PM10 °C3.9 °C66 %1031.2 hPa16.1 kmNorthOvercast
8:03 PM10 °C4.4 °C68 %1031.8 hPa16.1 kmSouth (190°)9.3 km/hOvercast
8:51 PM10.6 °C4.4 °C66 %1030.5 hPa16.1 kmVariable5.6 km/hOvercast
9:09 PM10.6 °C4.4 °C66 %1031.2 hPa16.1 kmVariable5.6 km/hOvercast
9:46 PM11 °C4 °C62 %1030.8 hPa16.1 kmCalmOvercast
10:51 PM10.6 °C3.3 °C61 %1029.8 hPa16.1 kmWSW (250°)13 km/hOvercast
11:51 PM10.6 °C3.9 °C63 %1029.5 hPa16.1 kmWest (260°)5.6 km/hOvercast
Hourly data recorded from KNYC, located 0 kilometers away from New York - Central Park, New York




STORIES FROM OUR PARTNERS